Simultaneous Nadir Overpasses (SNOs) Predictions

Prediction of SNOs between METOP-B and TERRA Satellite Orbit:

Table of predicted SNOs for the next 14.0 days since TLE Epoch: 4/15/2023
Index Date (METOP-B) Time (METOP-B) Lat,Lon (METOP-B) SZA (METOP-B ) Date (TERRA) Time (TERRA) Lat,Lon (TERRA) SZA (TERRA ) Distance(km) Time Diff (sec)
1 04/15/2023 10:59:35 80.89, 48.93 72.67 04/15/2023 11:00:00 80.89, 48.96 72.69 0.53 25
2 04/15/2023 11:50:13 -80.94,-142.74 107.21 04/15/2023 11:49:21 -80.93,-142.84 107.25 2.00 52
3 04/18/2023 02:20:35 -80.85, -2.02 108.34 04/18/2023 02:21:42 -80.85, -1.93 108.31 1.51 67
4 04/18/2023 03:11:13 80.90, 166.29 71.78 04/18/2023 03:11:02 80.91, 166.47 71.80 3.25 11
5 04/20/2023 18:32:13 -80.88, 115.63 109.17 04/20/2023 18:32:44 -80.88, 115.67 109.16 0.65 31
6 04/20/2023 19:22:52 80.91, -76.43 70.90 04/20/2023 19:22:05 80.92, -76.28 70.90 2.82 47
7 04/23/2023 09:53:13 80.85, 64.82 69.88 04/23/2023 09:54:25 80.85, 64.84 69.91 0.51 72
8 04/23/2023 10:43:52 -80.89,-127.16 110.04 04/23/2023 10:43:46 -80.89,-126.98 110.02 3.25 6
9 04/26/2023 02:04:51 80.87,-177.72 69.07 04/26/2023 02:05:26 80.87,-177.70 69.08 0.39 35
10 04/26/2023 02:55:30 -80.91, -9.67 110.85 04/26/2023 02:54:47 -80.91, -9.53 110.85 2.68 43
11 04/28/2023 17:26:29 -79.85, 118.93 113.72 04/28/2023 17:27:43 -79.56, 120.12 113.88 40.42 74



Historial Predications of SNOs between METOP-B and TERRA
